Theta_e
302 304 304 306 306 308 309 309 308 307 306 307 307 308 308 308 309 309 313 323 320 315 312 314 321 322 325 327 327 329 326 327 326 326 326 326 326 327 328 329 327 328 328 327 325
298 298 299 301 302 304 304 305 307 308 309 308 306 306 306 307 308 308 319 317 319 317 317 313 315 319 326 326 328 326 325 326 323 324 325 325 327 328 327 328 327 327 328 326 327
303 302 301 299 298 299 300 302 303 304 305 307 309 308 306 305 305 310 314 315 318 320 320 316 312 319 328 327 327 326 328 327 325 326 327 327 328 329 328 326 328 327 329 329 327
303 303 303 303 302 301 299 298 298 300 302 304 305 306 309 308 304 311 313 316 316 318 317 313 314 325 323 324 327 326 326 327 326 326 327 327 328 328 328 328 329 329 329 328 326
301 302 302 302 302 302 302 302 301 299 299 301 303 306 306 309 306 311 314 316 314 318 316 313 320 324 323 323 324 324 325 327 327 328 327 327 327 327 328 328 329 329 328 327 326
301 301 301 301 302 302 302 302 302 302 300 300 301 305 307 309 309 310 309 314 313 311 315 312 313 322 321 322 322 323 325 325 325 325 326 327 327 328 328 329 328 327 327 327 326
300 300 301 301 301 301 301 301 302 302 302 302 301 303 307 308 309 310 309 309 310 310 309 310 312 315 317 316 317 318 317 316 318 319 320 322 322 324 324 325 327 326 326 326 326
299 300 300 301 301 301 301 301 301 301 302 303 302 306 306 305 307 309 310 310 307 308 309 310 310 315 316 316 315 316 315 317 317 319 319 320 320 321 322 323 324 325 325 325 326
298 299 300 301 301 301 301 301 301 302 305 306 305 306 305 303 305 308 309 309 311 309 310 312 311 317 315 315 315 313 316 315 315 317 318 320 319 320 322 322 322 323 323 325 325
300 300 301 301 301 301 301 301 302 307 307 305 306 305 304 305 308 308 309 307 309 308 307 308 313 312 311 312 316 315 314 314 315 316 316 316 317 318 320 320 321 323 323 323 324
303 301 302 301 301 302 301 301 307 307 305 306 305 304 303 307 308 309 308 307 307 307 304 309 311 314 313 314 315 315 315 314 315 317 318 317 317 318 320 320 319 321 322 323 324
302 302 302 301 301 301 301 303 305 303 304 306 307 307 305 305 307 307 310 308 307 309 307 309 310 313 314 314 315 315 316 316 317 319 318 318 318 318 318 318 320 321 322 323 324
302 301 301 301 301 302 303 303 303 305 304 306 305 307 306 306 308 306 308 309 308 307 308 309 310 312 315 316 316 316 317 317 318 318 317 317 318 318 320 320 321 322 323 325 325
302 302 301 301 302 302 302 303 303 305 305 307 308 307 308 307 308 306 308 310 309 308 308 308 309 311 313 316 316 316 317 318 320 318 317 317 320 319 318 319 319 321 323 325 324
302 302 301 301 301 302 302 302 304 306 306 304 309 309 307 308 308 309 307 311 312 309 309 309 309 309 311 315 318 317 319 318 317 316 316 317 318 319 318 320 319 319 323 323 323
302 301 301 302 303 301 303 304 305 306 307 306 307 306 306 310 310 311 308 309 312 310 309 309 312 310 312 314 317 318 317 315 316 315 318 318 319 320 319 321 320 320 322 324 324
301 301 301 302 303 302 302 304 305 306 305 306 306 306 307 308 308 309 312 308 311 314 313 311 310 311 312 314 314 316 313 314 315 315 319 318 318 319 318 318 319 319 322 324 324
300 301 302 304 303 303 303 303 304 304 304 306 306 306 306 307 307 307 310 312 309 311 313 314 313 311 313 312 314 315 314 313 316 318 320 318 321 320 319 320 321 322 321 323 324
300 301 304 304 304 303 304 302 302 306 306 305 306 305 305 306 305 307 307 313 313 312 311 313 314 313 313 314 315 314 315 313 315 318 319 318 319 320 319 321 322 322 322 323 324
301 301 304 304 304 303 304 304 303 304 304 304 306 306 307 305 305 306 307 311 312 311 310 312 313 313 313 313 314 314 314 315 314 319 321 320 321 321 323 323 325 324 322 323 324
301 301 303 304 304 304 304 305 304 304 303 304 306 306 305 305 305 305 307 308 309 310 310 311 312 315 313 313 312 310 313 311 313 314 318 320 320 318 320 321 323 322 322 324 324
301 295 302 304 301 302 304 305 304 304 304 304 305 304 305 305 308 306 306 306 307 308 308 309 311 313 314 312 314 313 312 313 315 315 315 318 319 318 318 318 320 321 323 324 325
299 300 302 305 302 301 302 303 304 304 304 304 304 305 306 307 307 307 307 310 306 308 308 311 312 313 314 315 313 313 312 312 312 312 316 316 317 320 322 322 320 321 324 325 325
300 298 301 303 302 302 301 302 303 304 304 304 303 304 305 307 307 308 307 307 306 307 309 310 309 313 314 314 313 313 314 313 311 311 316 318 319 322 325 321 321 322 324 325 325
300 298 301 298 299 300 299 301 303 304 305 304 304 305 305 307 308 310 309 308 308 308 310 308 308 311 311 314 315 315 314 314 313 314 315 317 318 318 321 322 321 323 324 325 325
301 300 301 301 302 298 299 302 303 303 303 305 305 306 305 307 307 307 309 310 309 308 310 308 307 309 311 314 316 317 314 314 314 314 314 317 317 316 320 324 323 324 324 325 326
301 301 301 301 299 301 302 302 302 302 303 305 305 304 304 305 306 306 306 308 308 309 309 309 307 307 309 310 315 316 316 314 315 314 315 316 317 319 325 324 323 324 325 326 326
Wind_Speed
19 21 24 27 29 29 29 29 27 26 26 26 25 27 26 27 28 27 29 27 20 12 16 16 12 19 15 13 12 6 1 5 7 8 8 8 0 2 4 11 9 19 23 28 29
18 19 21 22 24 27 29 30 30 29 28 26 26 28 27 28 31 35 34 31 23 22 22 19 19 18 16 12 11 8 6 10 8 7 6 3 2 14 6 17 22 28 24 18 33
18 18 17 18 21 23 25 27 28 29 30 29 27 27 26 25 28 35 34 25 24 26 25 25 17 21 15 11 16 10 13 20 13 20 12 9 16 10 8 10 24 20 37 38 32
19 19 19 19 19 20 20 22 24 26 27 28 28 27 25 17 8 2 12 15 22 27 27 26 19 17 8 10 23 4 18 28 27 22 11 9 12 18 23 29 35 35 38 36 32
20 20 20 21 21 21 21 20 20 21 22 22 22 22 23 15 25 7 12 9 4 10 24 30 28 22 10 9 17 8 11 19 26 27 25 22 17 19 28 49 39 37 36 36 35
20 20 20 20 21 21 20 20 20 21 21 21 19 16 16 19 30 30 36 25 18 12 4 24 19 25 9 10 8 6 21 21 17 25 26 20 18 18 32 44 33 34 39 38 37
22 23 22 22 23 23 23 22 22 22 23 22 19 15 24 44 24 20 19 35 36 31 29 19 23 17 10 2 11 11 5 8 11 17 8 22 13 17 43 34 33 39 41 39 36
21 22 23 24 24 25 24 25 25 25 27 24 20 12 18 23 28 31 33 30 24 28 28 23 21 27 10 2 1 4 4 3 5 6 9 12 12 19 32 32 33 39 34 34 39
24 24 24 24 25 26 26 26 27 25 21 17 11 10 17 15 25 29 32 41 37 29 17 8 22 16 4 10 8 2 10 7 6 9 5 8 9 13 26 18 25 34 41 38 36
23 24 26 26 25 26 27 26 19 11 9 4 5 5 14 10 11 14 15 17 28 12 22 17 11 6 6 7 17 8 5 6 8 4 6 10 14 19 33 23 29 31 33 38 40
24 23 23 24 26 28 26 26 6 3 9 8 8 17 23 18 18 9 11 10 19 18 8 15 8 22 23 20 8 6 12 14 1 3 5 8 8 15 23 16 20 29 34 38 36
24 24 24 24 24 26 20 5 5 7 11 22 30 33 39 35 21 29 12 11 12 13 12 6 29 22 13 15 17 13 18 13 7 5 6 11 14 14 17 15 20 28 34 35 31
24 23 24 25 24 19 11 4 7 18 6 16 28 16 23 24 25 41 19 12 7 13 25 24 25 14 16 15 17 19 21 17 16 2 5 8 14 14 17 13 19 25 24 21 19
25 22 23 26 15 16 14 5 13 14 4 7 4 8 7 9 10 39 29 14 7 18 16 17 21 23 18 19 16 20 17 17 11 4 5 5 6 12 11 13 8 20 22 20 19
24 22 23 20 22 14 11 12 5 1 5 3 4 5 17 10 10 11 44 27 9 9 9 12 15 26 22 25 22 15 13 14 9 6 2 4 4 7 5 11 11 10 25 23 15
25 25 23 21 17 12 4 5 2 2 8 4 5 11 11 5 16 11 20 28 15 7 8 9 14 18 11 13 19 4 3 3 2 3 7 10 7 5 5 16 6 5 8 12 10
28 25 21 19 15 8 7 3 2 5 5 1 6 13 15 16 8 8 8 20 15 13 13 5 9 2 10 6 10 11 8 1 2 2 5 7 8 13 10 10 9 9 18 7 13
29 25 12 9 7 5 2 1 7 4 10 10 10 12 5 12 10 19 9 5 19 6 8 8 4 13 7 11 11 18 12 7 7 4 5 8 8 6 20 20 27 25 17 12 18
31 19 10 11 6 10 5 3 4 3 4 9 10 5 3 9 5 12 10 7 1 17 5 9 8 5 17 7 17 10 13 10 4 2 2 4 6 5 9 9 6 6 11 18 21
30 13 10 11 2 9 0 3 4 5 7 5 3 3 5 9 8 7 9 16 14 13 8 5 3 7 13 10 19 14 11 8 7 7 4 5 5 5 4 5 3 2 7 17 22
16 4 12 9 5 3 2 3 6 10 9 3 2 4 6 9 6 3 4 15 17 20 11 5 1 2 12 16 13 4 10 2 6 5 5 1 6 7 7 7 8 9 17 24 27
11 2 11 7 4 2 3 5 9 9 8 5 4 9 9 10 6 3 5 6 21 19 11 4 3 4 10 7 17 14 11 12 10 12 4 4 5 5 8 7 5 9 20 21 24
10 6 6 8 3 3 4 7 5 4 4 3 4 4 2 3 5 8 2 4 12 12 12 9 4 2 2 2 7 23 14 9 6 4 13 4 5 3 4 5 4 10 19 22 25
6 4 4 3 3 4 5 5 4 9 8 4 5 5 3 5 6 6 6 4 7 8 15 12 4 3 5 1 4 17 21 19 6 3 7 19 3 6 5 7 4 14 21 23 27
7 2 3 4 3 5 3 4 5 6 6 8 3 3 5 2 7 2 8 8 2 3 3 4 4 3 10 13 9 2 20 19 19 18 6 5 7 7 7 10 10 19 21 23 26
7 4 6 7 10 5 4 3 4 7 7 5 4 9 9 5 7 9 4 3 1 4 3 5 4 6 5 12 9 10 6 20 21 15 18 4 8 8 3 8 11 23 26 27 29
8 8 7 6 3 3 2 3 8 12 10 11 10 11 12 12 5 13 17 9 5 3 4 3 2 5 4 9 7 8 20 7 10 14 11 11 17 3 2 6 10 23 29 31 32
Wind_Direction
305 300 294 293 295 293 292 292 290 286 281 281 280 278 279 280 274 267 258 264 264 262 251 236 203 222 218 214 195 181 115 242 233 171 244 165 316 177 225 298 290 293 292 291 289
321 311 302 297 294 293 293 292 292 291 288 283 280 278 278 279 281 273 261 261 256 254 254 241 225 209 204 218 195 173 182 231 210 189 242 270 254 306 312 316 291 292 304 296 302
343 339 333 318 304 296 292 292 291 291 289 287 282 278 277 281 291 280 278 269 245 244 243 241 225 210 208 201 202 196 222 230 266 243 243 285 294 304 286 290 283 286 302 307 297
339 337 335 333 331 324 315 304 297 292 290 287 284 283 276 276 238 219 240 209 219 226 222 217 199 180 204 212 213 197 228 234 252 264 278 261 287 293 286 268 282 290 296 298 290
337 335 333 330 327 327 325 322 313 304 297 290 288 289 287 257 236 230 203 183 42 198 211 204 187 191 185 202 227 235 239 244 251 270 272 277 262 265 288 285 287 291 293 292 295
331 330 328 327 327 326 324 318 313 308 304 298 297 289 281 253 259 247 243 237 246 265 232 198 206 205 211 219 199 215 238 248 262 270 276 269 276 279 271 275 283 287 289 293 294
330 328 326 325 323 320 319 318 313 311 309 305 300 288 262 249 253 264 245 244 243 247 249 250 216 197 238 338 248 234 226 262 234 248 250 273 269 250 265 281 280 282 286 288 288
325 324 323 323 322 320 319 311 309 312 302 289 278 278 257 274 270 259 250 248 238 244 247 250 242 237 249 204 319 203 168 233 232 218 248 190 261 267 278 273 270 277 282 288 291
326 324 323 321 321 320 318 312 317 309 303 283 247 237 271 269 258 270 253 242 241 241 227 210 217 218 189 221 272 264 253 239 297 223 237 179 274 263 282 287 279 280 284 288 288
330 327 326 325 323 321 321 323 320 316 356 97 197 250 266 259 328 296 299 246 227 224 216 210 213 190 181 168 215 212 229 227 226 241 236 260 265 277 277 275 263 274 282 287 288
333 330 327 325 324 325 328 336 356 299 325 272 246 250 282 298 293 228 281 210 192 192 166 173 199 216 206 209 210 211 232 243 274 218 246 248 269 269 276 261 264 275 282 286 290
335 333 330 327 325 321 327 8 67 333 301 291 280 256 273 276 282 270 246 160 181 195 151 165 225 219 201 203 208 209 231 246 266 207 235 271 272 267 282 269 260 272 284 288 289
335 333 332 326 328 322 347 26 344 336 260 285 265 248 245 252 233 255 227 204 174 187 189 199 222 199 197 196 201 216 221 233 240 347 267 312 289 288 281 271 272 267 277 288 294
334 328 329 325 326 322 335 203 330 323 310 269 218 243 233 240 238 238 226 208 194 194 193 227 225 198 196 206 195 224 214 235 253 220 241 129 286 292 300 298 263 292 299 286 283
333 331 323 319 305 308 318 290 289 204 313 243 186 133 327 188 311 246 212 219 202 171 163 214 182 213 213 206 189 234 179 211 213 226 227 244 287 260 266 284 279 280 290 293 274
335 331 324 321 300 313 318 339 208 91 242 281 74 344 339 214 264 289 174 216 218 190 240 210 200 199 192 197 200 183 87 71 67 103 246 246 200 247 219 237 262 263 290 297 214
336 332 321 307 279 288 313 250 156 207 318 107 351 350 336 356 354 352 235 193 195 191 205 176 233 188 180 158 177 184 109 309 315 264 225 205 201 240 260 242 229 257 280 225 191
338 334 336 338 306 244 145 95 231 277 232 345 352 317 339 16 338 345 335 204 229 260 183 177 199 199 175 189 175 186 166 165 185 210 243 173 211 245 233 245 253 260 263 196 182
339 344 18 354 329 162 170 211 234 315 17 344 337 325 339 13 5 343 334 344 320 226 253 185 226 167 180 166 165 181 206 170 121 194 99 231 265 293 218 211 208 169 171 187 178
341 351 13 358 8 158 278 253 265 333 330 327 309 312 323 338 322 11 311 35 354 3 322 261 182 188 199 169 195 188 147 175 201 192 216 279 277 222 181 236 272 209 192 181 178
347 11 2 355 167 179 266 279 282 284 304 299 297 309 314 328 297 7 265 305 356 350 341 355 166 281 149 200 165 131 185 123 164 154 162 199 261 224 204 201 198 212 191 183 179
357 28 354 19 61 360 316 306 304 297 314 265 270 243 248 293 310 254 249 235 331 327 339 318 312 223 202 159 192 199 178 178 201 191 187 164 274 239 226 224 223 191 177 182 181
346 312 347 349 38 342 289 286 272 290 278 320 300 263 311 299 317 281 257 145 298 345 348 336 304 145 6 145 189 199 199 166 110 115 206 147 247 321 298 264 225 189 176 178 177
353 344 344 16 7 349 323 293 302 304 293 275 251 269 278 293 292 290 252 279 175 326 322 319 273 251 204 257 120 204 203 203 139 135 163 219 214 242 264 242 198 180 180 177 178
358 319 335 307 330 316 248 275 302 334 336 310 303 20 322 303 304 316 295 270 216 61 350 345 276 283 291 275 299 320 198 202 205 216 184 190 212 239 231 220 197 175 170 174 180
353 347 314 287 310 335 311 289 326 321 317 304 293 321 319 263 258 287 313 275 296 123 114 312 283 342 301 282 271 269 256 212 206 217 225 167 248 216 321 126 168 169 173 182 189
343 323 295 279 298 282 248 286 300 311 290 236 291 310 302 285 334 300 281 224 222 214 188 184 315 357 294 338 309 258 238 218 222 213 180 196 228 141 228 202 200 175 188 193 198